THORAD DELTA 1 DEB, 17728

Orbit data source: Space-Track

THORAD DELTA 1 DEB, 17728 is space debris in SSO originally from a launch on Fri, 15 Nov 1974 UTC launched from the Air Force Western Test Range (AFWTR). Debris objects in space refer to the collection of defunct objects orbiting the Earth. Examples of debris include non-operational satellites, rocket bodies, and fragments generated from explosions, collisions, or faulty payload assembly.

Loading next visibility...
Identifier
17728, 1974-089EX
Orbit
SSO
Country
Flag of USUS
Related business
Manufacturer
Unknown
Mission
Spacecraft
Bus & Motor
Unknown
Mass
Unknown
Launch date (UTC)
1974-11-15 (52 years ago)
Launch vehicle
Unknown
Launch site
Air Force Western Test Range (AFWTR)
Object type
Payload
Rocket body
Debris
Shape & HBR
Unknown shape, 0.1 m
Radar Cross Section
Medium (>0.1 m² and <1 m²)

Expand to show TLE details & history
Last TLE update: 18 hours ago

TLE from 18 hours ago
0 THORAD DELTA 1 DEB
1 17728U 74089EX  26175.16408648  .00000062  00000-0  81077-3 0  9995
2 17728 101.4742 323.5483 0106312 227.0078 316.5708 12.35155044863134
Epoch: 2026-06-24T03:56Z
TLE epoch observation values (Epoch: 2026-06-24T03:56:17.071Z)
Latitude
-2.79842°
Longitude
171.58624°
Altitude
1,469.563 km
Speed
7.155 km/s
True Right ascension
09h 31m 55s
True Declination
-2° 46' 60"
Sunlit
Object was in daylight at epoch
Visualization orbit readout
Latitude
Unknown
Longitude
Unknown
Altitude
Unknown
Speed
Unknown
Apparent Right ascension
Unknown
Apparent Declination
Unknown
Sunlit
N/A
Visualization observer readout
Local Sidereal Time
09:08:29
Azimuth
Unknown
Elevation
Unknown
Doppler factor
Unknown
Orbital elements
Apogee altitude
1,608.776 km
Perigee altitude
1,440.741 km
Semi-major axis
7,902.896 km
Eccentricity
0.01063
Inclination
101.4742°
RAAN
323.5483°
Arg. of periapsis
227.0078°
True anomaly
315.72518°
Mean anomaly
316.5708°
Eccentric anomaly
316.14881°
Mean motion
3.08933 °/min
Orbital period
116.53 mins
BSTAR
0.00081077
Loading maneuver chart data...
Computing Atmospheric mass density...

Documentation

Showing up to 5 results
|